Find Local Weather

World > North America > United States > Michigan

Harbor Beach, Michigan Regional Weather

Lat: 43.85N, Lon: 82.65W
Wx Zone: MIZ049
Feedback
Expires:201806201400;;829671
ASUS43 KDTX 201310
RWRMI 
MICHIGAN HOURLY REGIONAL WEATHER ROUNDUP
NATIONAL WEATHER SERVICE DETROIT/PONTIAC MI
900 AM EDT WED JUN 20 2018

NOTE: "FAIR" INDICATES FEW OR NO CLOUDS BELOW 12,000 FEET WITH NO
SIGNIFICANT WEATHER AND/OR OBSTRUCTION TO VISIBILITY.


MIZ047>049-052>055-059>063-066>070-074>076-081>083-201400-
SOUTHEAST LOWER MICHIGAN
  
CITY           SKY/WX    TMP DP  RH WIND       PRES   REMARKS
ADRIAN         CLOUDY    60  58  92 E10       29.91S                  
ALMA           CLOUDY    58  58 100 SE5       29.92F                  
ANN ARBOR      CLOUDY    59  57  93 NE3       29.91S                  
BAD AXE        FAIR      58  53  85 SE3       29.92F                  
CARO           PTSUNNY   57  53  86 SE3       29.91F                  
DETROIT CITY   LGT RAIN  60  57  89 NE7       29.91F                  
DETROIT        CLOUDY    61  56  83 NE7       29.91F                  
FLINT          CLOUDY    59  50  72 NE9       29.93S                  
GROSSE ILE     CLOUDY    61  59  94 NE8       29.90F                  
HILLSDALE      CLOUDY    63  59  88 E7        29.89S                  
HOWELL         DRIZZLE   60  55  85 CALM      29.92R                  

CITY           SKY/WX    TMP DP  RH WIND       PRES   REMARKS
JACKSON        CLOUDY    61  59  93 NE9       29.91S                  
LAMBERTVILLE   CLOUDY    64  59  85 NE5       29.89S                  
LANSING        CLOUDY    62  53  72 NE8       29.93R                  
LAPEER         CLOUDY    57  51  80 NE6       29.94F                  
MASON          CLOUDY    60  56  88 NE3       29.92F                  
MONROE         CLOUDY    61  59  93 N5        29.89S                  
MT. CLEMENS    LGT RAIN  61  60  96 NE9       29.91S FOG              
PONTIAC        CLOUDY    63  56  78 E9        29.90S                  
PORT HOPE        N/A     60  53  77 S3        29.91F                  
PORT HURON     CLOUDY    59  50  72 NE8       29.93F                  
TRI CITIES     PTSUNNY   60  56  86 S7        29.90F                  
MIDLAND        FAIR      62  58  87 SE5       29.89F                  
TROY           LGT RAIN  61  58  88 E6        29.94S                  
SAGINAW HB     CLOUDY    57  54  88 SE7       29.91F                  
$$

SKY/WX - Weather  TMP - Temperature  DP - Dewpoint  RH - Relative Humidity
WIND - Wind Direction/Speed PRES - Barometric Pressure